Regional Weather Roundup
Issued by NWS

Home | Current Version | Previous Version | Text Only | Print | Product List | Glossary On
Versions: 1 2 3 4 5 6 7 8 9 10 11 12 13 14 15 16 17 18 19 20 21 22 23 24 25 26 27 28 29 30 31 32 33 34 35 36 37 38 39 40 41 42 43 44 45 46 47 48 49 50
155
ASUS43 KDTX 270710
RWRMI
MICHIGAN HOURLY REGIONAL WEATHER ROUNDUP
NATIONAL WEATHER SERVICE DETROIT/PONTIAC MI
300 AM EDT SAT MAY 27 2017

NOTE: "FAIR" INDICATES FEW OR NO CLOUDS BELOW 12,000 FEET WITH NO
SIGNIFICANT WEATHER AND/OR OBSTRUCTION TO VISIBILITY.

MIZ047>049-052>055-059>063-066>070-074>076-081>083-270800-
SOUTHEAST LOWER MICHIGAN

CITY           SKY/WX    TMP DP  RH WIND       PRES   REMARKS
ADRIAN         CLOUDY    59  58  96 E5        29.87F
ALMA           MOCLDY    54  53  98 CALM      29.88S
ANN ARBOR      CLOUDY    57  57 100 CALM      29.86F
BAD AXE        PTCLDY    53  52  97 S5        29.90S
CARO           CLOUDY    55  54  99 CALM      29.88S FOG
DETROIT CITY   CLOUDY    59  55  87 SE5       29.87F
DETROIT        LGT RAIN  61  56  83 CALM      29.88F
FLINT          CLOUDY    58  54  86 CALM      29.87F
GROSSE ILE     DRIZZLE   60  55  84 SE3       29.86F
HILLSDALE      CLOUDY    59  55  88 CALM      29.86S
HOWELL         LGT RAIN  57  54  88 CALM      29.87S

CITY           SKY/WX    TMP DP  RH WIND       PRES   REMARKS
JACKSON        CLOUDY    60  56  86 SE6       29.86F
LAMBERTVILLE   CLOUDY    59  58  96 CALM      29.86S FOG
LANSING        CLOUDY    62  52  69 CALM      29.87R
LAPEER         FAIR      53  52  97 S6        29.88F FOG
MASON          CLOUDY    60  56  87 CALM      29.87S
MONROE         RAIN      60  58  91 SE5       29.86F
MT. CLEMENS    CLOUDY    57  57 100 E3        29.87S
PONTIAC        CLOUDY    57  54  89 CALM      29.87S
PORT HOPE        N/A     51  49  92 CALM      29.88S
PORT HURON     CLOUDY    50  48  93 CALM      29.89S FOG
TRI CITIES     CLOUDY    57  55  93 NE7       29.88S
MIDLAND        CLOUDY    56  55  96 CALM      29.87S
TROY           CLOUDY    60  55  82 CALM      29.89F
SAGINAW HB     CLOUDY    54  50  87 NE3       29.87S
$$
MIZ043>046-050>051-056>058-064>065-071>073-077>080-270800-
SOUTHWEST LOWER MICHIGAN

CITY           SKY/WX    TMP DP  RH WIND       PRES   REMARKS
BATTLE CREEK   CLOUDY    61  58  90 CALM      29.87S
BENTON HARBOR  LGT RAIN  58  56  93 CALM      29.86R FOG
BIG RAPIDS     CLOUDY    54  50  87 W3        29.88S
COLDWATER      DRIZZLE   59  59 100 E3        29.85F
FREMONT        FAIR      52  51  98 CALM      29.88S
HOLLAND        CLEAR     55  53  93 CALM      29.87F
GRAND RAPIDS   CLOUDY    59  58  96 N5        29.88R
IONIA          CLOUDY    59  56  89 NW3       29.87S
KALAMAZOO      CLOUDY    61  57  87 CALM      29.86S
LUDINGTON      CLEAR     47  47 100 CALM      29.88F FOG
MARSHALL       CLOUDY    59  58  98 CALM      29.86S
MOUNT PLEASANT CLEAR     54  53  96 CALM      29.87S FOG
MUSKEGON       CLOUDY    56  54  93 CALM      29.88S
SOUTH HAVEN    CLOUDY    57  57  99 CALM      29.86S
$$
MIZ016>042-270800-
NORTHERN LOWER MICHIGAN

CITY           SKY/WX    TMP DP  RH WIND       PRES   REMARKS
ALPENA         PTCLDY    48  47  96 CALM      29.90R
BEAVER ISLAND  CLOUDY    51  50  97 CALM      29.88S
BELLAIRE       CLEAR     50  48  95 CALM      29.89S
CADILLAC       CLOUDY    48  47  97 CALM      29.89S
CHARLEVOIX     CLOUDY    52  51  99 CALM      29.91F
FRANKFORT      CLOUDY    47  45  91 CALM      29.89R
GAYLORD        CLOUDY    54  49  83 CALM      29.89R
GRAYLING       PTCLDY    46  44  95 CALM      29.90R
HARBOR SPRINGS CLOUDY    50  50 100 E3        29.88S
HOUGHTON LAKE  CLOUDY    51  49  92 NE3       29.89S
MANISTEE       CLEAR     45  44  97 CALM      29.89S
OSCODA         PTCLDY    47  45  93 W5        29.88F
PELLSTON       CLOUDY    50  47  89 CALM      29.89S
ROGERS CITY    CLOUDY    53  51  94 CALM      29.89S
TRAVERSE CITY  PTCLDY    50  48  93 CALM      29.87S
$$
MIZ007>008-015-270800-
EASTERN UPPER MICHIGAN

CITY           SKY/WX    TMP DP  RH WIND       PRES   REMARKS
KINROSS        CLOUDY    53  49  86 SW3       29.88S
MACKINAC ISLAN CLOUDY    52  52 100 W6        29.88S
NEWBERRY       CLOUDY    54  53  97 S3        29.86F
S. S. MARIE    CLEAR     55  50  83 CALM      29.87S
MUNISING         N/A     57  55  93 SW5       29.85R
$$
MIZ004>006-011>014-085-270800-
CENTRAL UPPER MICHIGAN

CITY           SKY/WX    TMP DP  RH WIND       PRES   REMARKS
MANISTIQUE     CLOUDY    46  45  93 SW5       29.87R
ESCANABA       CLOUDY    53  51  93 SE5       29.88S
MENOMINEE      PTCLDY    54  52  93 CALM      29.88R
SAWYER-GWINN   CLOUDY    56  54  94 SW7       29.86S
$$
MIZ001>003-009>011-084-270800-
WESTERN UPPER MICHIGAN

CITY           SKY/WX    TMP DP  RH WIND       PRES   REMARKS
IRON MOUNTAIN  FOG       52  50  93 CALM      29.85F VSB 1
HOUGHTON       MOCLDY    54  49  83 S3        29.80S
COPPER HARBOR    N/A     58  54  86 W7        29.79S
IRONWOOD       PTCLDY    60  55  83 S8        29.80F
$$

ABBREVIATIONS USED IN REMARKS
   TC - TEMPERATURE IN CELSIUS
  WCI - WIND CHILL INDEX
   HX - HEAT INDEX
  VSB - VISIBILITY





USA.gov is the U.S. government's official web portal to all federal, state and local government web resources and services.